Greenville Downtown, SC

1:28 PM EDT on August 20, 2017 (GMT -0400)
Greenville Downtown

Weather History for KGMU - June, 2013

Change the Weather History Date:

Saturday, June 29, 2013

  Actual Average Record
Temperature  
Mean Temperature 80 °F -  
Max Temperature 88 °F 85 °F 102 °F (2012)
Min Temperature 71 °F 67 °F 64 °F (2004)
Cooling Degree Days 14    
Growing Degree Days 30 (Base 50)    
Moisture  
Dew Point 67 °F    
Average Humidity 74    
Maximum Humidity 94    
Minimum Humidity 43    
Precipitation  
Precipitation 0.00 in - - ()
Sea Level Pressure  
Sea Level Pressure 29.68 in    
Wind  
Wind Speed 6 mph (SW)    
Max Wind Speed 14 mph    
Max Gust Speed 20 mph    
Visibility 10 miles    
Events      
Averages and records for this station are not official NWS values.
T = Trace of Precipitation, MM = Missing Value Source: NWS Daily Summary

Daily Weather History Graph

Daily Weather History Graph

Search for Another Location

Airport or City:

Trip Planner

Search our weather history database for the weather conditions in past years. The results will help you decide how hot, cold, wet, or windy it might be!

Date:

Astronomy

Jun. 29, 2013 Rise Set
Actual Time 6:18 AM EDT 8:47 PM EDT
Civil Twilight 5:49 AM EDT 9:16 PM EDT
Nautical Twilight 5:12 AM EDT 9:53 PM EDT
Astronomical Twilight 4:32 AM EDT 10:33 PM EDT
Moon 12:31 AM EDT (6/29) 1:11 PM EDT (6/29)
Length of Visible Light 15h 27m
Length of Day
14h 28m
Waning Gibbous, 56% of the Moon is Illuminated
Jun 29
Waning Gibbous
Jun 30
Last Quarter
Jul 8
New
Jul 15
First Quarter
Jul 22
Full

Hourly Weather History & Observations

Time (EDT) Temp. Heat Index Dew Point Humidity Pressure Visibility Wind Dir Wind Speed Gust Speed Precip Events Conditions
12:53 AM 73.0 °F - 68.0 °F 84% 29.67 in 10.0 mi West 5.8 mph - N/A   Scattered Clouds
1:53 AM 72.0 °F - 68.0 °F 87% 29.65 in 10.0 mi WSW 4.6 mph - N/A   Clear
2:53 AM 72.0 °F - 68.0 °F 87% 29.66 in 10.0 mi West 5.8 mph - N/A   Overcast
3:53 AM 72.0 °F - 68.0 °F 87% 29.66 in 10.0 mi Calm Calm - N/A   Partly Cloudy
4:53 AM 72.0 °F - 68.0 °F 87% 29.65 in 10.0 mi Calm Calm - N/A   Partly Cloudy
5:53 AM 71.1 °F - 68.0 °F 90% 29.66 in 10.0 mi SW 3.5 mph - N/A   Clear
6:30 AM 71.6 °F - 69.8 °F 94% 29.71 in 10.0 mi SSW 3.5 mph - N/A   Scattered Clouds
6:39 AM 71.6 °F - 69.8 °F 94% 29.71 in 10.0 mi South 3.5 mph - N/A   Mostly Cloudy
6:53 AM 71.1 °F - 68.0 °F 90% 29.68 in 10.0 mi SW 4.6 mph - N/A   Overcast
7:53 AM 71.1 °F - 68.0 °F 90% 29.69 in 10.0 mi SW 4.6 mph - N/A   Overcast
8:24 AM 71.6 °F - 69.8 °F 94% 29.73 in 10.0 mi WSW 4.6 mph - N/A   Overcast
8:53 AM 73.0 °F - 69.1 °F 87% 29.70 in 10.0 mi SW 4.6 mph - N/A   Overcast
9:25 AM 73.4 °F - 68.0 °F 83% 29.73 in 10.0 mi SSW 3.5 mph - N/A   Scattered Clouds
9:53 AM 73.9 °F - 68.0 °F 82% 29.70 in 10.0 mi SW 4.6 mph - N/A   Clear
10:53 AM 78.1 °F - 69.1 °F 74% 29.70 in 10.0 mi SSW 6.9 mph - N/A   Clear
11:53 AM 80.1 °F 82.9 °F 69.1 °F 69% 29.70 in 10.0 mi SSW 8.1 mph - N/A   Scattered Clouds
12:53 PM 84.0 °F 87.0 °F 68.0 °F 58% 29.69 in 10.0 mi SW 6.9 mph - N/A   Partly Cloudy
1:53 PM 84.9 °F 86.6 °F 64.9 °F 51% 29.68 in 10.0 mi South 8.1 mph 17.3 mph N/A   Scattered Clouds
2:53 PM 88.0 °F 89.6 °F 64.9 °F 46% 29.66 in 10.0 mi SW 13.8 mph 18.4 mph N/A   Partly Cloudy
3:53 PM 87.1 °F 87.5 °F 62.1 °F 43% 29.65 in 10.0 mi West 9.2 mph - N/A   Partly Cloudy
4:53 PM 87.1 °F 87.8 °F 63.0 °F 44% 29.65 in 10.0 mi SW 13.8 mph 19.6 mph N/A   Scattered Clouds
5:53 PM 87.1 °F 87.5 °F 62.1 °F 43% 29.64 in 10.0 mi WSW 8.1 mph 19.6 mph N/A   Partly Cloudy
6:53 PM 86.0 °F 86.3 °F 62.1 °F 44% 29.64 in 10.0 mi WSW 10.4 mph - N/A   Clear
7:53 PM 81.0 °F 84.1 °F 69.1 °F 67% 29.67 in 10.0 mi South 11.5 mph - N/A   Clear
8:53 PM 79.0 °F - 68.0 °F 69% 29.68 in 10.0 mi South 11.5 mph - N/A   Clear
9:53 PM 75.9 °F - 66.0 °F 71% 29.70 in 10.0 mi South 8.1 mph - N/A   Clear
10:53 PM 73.9 °F - 66.0 °F 76% 29.72 in 10.0 mi SW 5.8 mph - N/A   Partly Cloudy
11:53 PM 73.0 °F - 66.0 °F 79% 29.72 in 10.0 mi WSW 6.9 mph - N/A   Mostly Cloudy